N420FB SCPC-SCEL

Flight info

Callsign N420FB
Flight time N/A
Altitude 28000
Route VI059 DCT VI042 DCT VI080 DCT VI116 DCT MUBIL DCT ELABA UQ802 EROLO EROLO8A
Aircraft PC12/L-SDFGRWY/S

Departure

Time 2026-05-07 06:30
Airport Pucón Airport (SCPC)

Arrival

Time N/A
Airport Comodoro Arturo Merino Benítez International Airport (SCEL)
Time Latitude Longitude Altitude Speed Heading
2026-05-07 06:09 -39.29035 -71.92097 925 ft 0 kts 11°
2026-05-07 06:26 -39.29008 -71.92110 927 ft 10 kts 303°
2026-05-07 06:26 -39.29050 -71.92185 926 ft 14 kts 189°
2026-05-07 06:27 -39.29138 -71.92162 922 ft 14 kts 108°
2026-05-07 06:27 -39.29153 -71.92034 923 ft 15 kts 99°
2026-05-07 06:27 -39.29179 -71.91900 930 ft 17 kts 107°
2026-05-07 06:27 -39.29196 -71.91796 930 ft 1 kts 99°
2026-05-07 06:28 -39.29207 -71.91712 929 ft 16 kts 105°
2026-05-07 06:28 -39.29238 -71.91530 929 ft 25 kts 101°
2026-05-07 06:28 -39.29263 -71.91322 931 ft 18 kts 97°
2026-05-07 06:28 -39.29283 -71.91321 930 ft 9 kts 300°
2026-05-07 06:29 -39.29264 -71.91373 931 ft 0 kts 282°
2026-05-07 06:29 -39.29238 -71.91537 933 ft 49 kts 284°
2026-05-07 06:30 -39.29133 -71.92167 988 ft 85 kts 288°
2026-05-07 06:30 -39.28937 -71.92933 1284 ft 96 kts 290°
2026-05-07 06:30 -39.28813 -71.93825 1619 ft 98 kts 282°
2026-05-07 06:30 -39.28697 -71.94655 2054 ft 88 kts 282°
2026-05-07 06:31 -39.28594 -71.95389 2533 ft 80 kts 279°
2026-05-07 06:31 -39.28668 -71.96131 2921 ft 90 kts 238°
2026-05-07 06:31 -39.29245 -71.96579 3376 ft 92 kts 214°
2026-05-07 06:31 -39.29758 -71.96979 3766 ft 106 kts 219°
2026-05-07 06:32 -39.30249 -71.97386 4596 ft 68 kts 214°
2026-05-07 06:32 -39.30711 -71.98066 4470 ft 49 kts 278°
2026-05-07 06:32 -39.29035 -71.92097 924 ft 0 kts 11°